Météo par heure à Jurata

Ce jour, 16 Juin, Mercredi

Heure Température Précipitation Vent Pression Humidité
00:00 +10°C° 0 mm 4 m/s 764 mmHg 89%
01:00 +10°C° 0 mm 4 m/s 764 mmHg 91%
02:00 +10°C° 0 mm 4 m/s 764 mmHg 91%
03:00 +10°C° 0 mm 3 m/s 764 mmHg 91%
04:00 +10°C° 0 mm 3 m/s 764 mmHg 91%
05:00 +12°C° 0 mm 3 m/s 764 mmHg 82%
06:00 +14°C° 0 mm 3 m/s 764 mmHg 72%
07:00 +17°C° 0 mm 3 m/s 764 mmHg 63%
08:00 +18°C° 0 mm 2 m/s 764 mmHg 59%
09:00 +19°C° 0 mm 2 m/s 765 mmHg 55%
10:00 +20°C° 0 mm 2 m/s 765 mmHg 51%
11:00 +20°C° 0 mm 2 m/s 765 mmHg 52%
12:00 +20°C° 0 mm 2 m/s 765 mmHg 52%
13:00 +20°C° 0 mm 2 m/s 765 mmHg 52%
14:00 +20°C° 0 mm 2 m/s 765 mmHg 53%
15:00 +19°C° 0 mm 2 m/s 765 mmHg 55%
16:00 +19°C° 0 mm 2 m/s 765 mmHg 56%
17:00 +18°C° 0 mm 2 m/s 765 mmHg 61%
18:00 +17°C° 0 mm 2 m/s 765 mmHg 66%
19:00 +16°C° 0 mm 2 m/s 764 mmHg 71%
20:00 +15°C° 0 mm 2 m/s 765 mmHg 74%
21:00 +14°C° 0 mm 2 m/s 765 mmHg 76%
22:00 +13°C° 0 mm 2 m/s 765 mmHg 78%
23:00 +12°C° 0 mm 3 m/s 765 mmHg 79%

Demain, 17 Juin, Jeudi

Heure Température Précipitation Vent Pression Humidité
00:00 +12°C° 0 mm 3 m/s 765 mmHg 80%
01:00 +12°C° 0 mm 4 m/s 765 mmHg 82%
02:00 +12°C° 0 mm 4 m/s 765 mmHg 84%
03:00 +12°C° 0 mm 4 m/s 765 mmHg 87%
04:00 +11°C° 0 mm 4 m/s 765 mmHg 89%
05:00 +14°C° 0 mm 4 m/s 765 mmHg 81%
06:00 +17°C° 0 mm 4 m/s 765 mmHg 74%
07:00 +19°C° 0 mm 4 m/s 765 mmHg 66%
08:00 +20°C° 0 mm 4 m/s 765 mmHg 62%
09:00 +22°C° 0 mm 5 m/s 765 mmHg 59%
10:00 +23°C° 0 mm 5 m/s 765 mmHg 55%
11:00 +25°C° 0 mm 5 m/s 765 mmHg 54%
12:00 +25°C° 0 mm 5 m/s 765 mmHg 53%
13:00 +26°C° 0 mm 5 m/s 765 mmHg 52%
14:00 +26°C° 0 mm 5 m/s 765 mmHg 53%
15:00 +27°C° 0 mm 4 m/s 764 mmHg 54%
16:00 +27°C° 0 mm 4 m/s 764 mmHg 55%
17:00 +26°C° 0 mm 5 m/s 764 mmHg 60%
18:00 +25°C° 0 mm 5 m/s 764 mmHg 65%
19:00 +23°C° 0 mm 5 m/s 764 mmHg 70%
20:00 +21°C° 0 mm 5 m/s 764 mmHg 71%
21:00 +20°C° 0 mm 5 m/s 764 mmHg 71%
22:00 +19°C° 0 mm 6 m/s 765 mmHg 72%
23:00 +17°C° 0 mm 5 m/s 764 mmHg 73%

Après-demain, 18 Juin, Vendredi

Heure Température Précipitation Vent Pression Humidité
00:00 +17°C° 0 mm 5 m/s 764 mmHg 75%
01:00 +16°C° 0 mm 5 m/s 764 mmHg 76%
02:00 +16°C° 0 mm 5 m/s 764 mmHg 78%
03:00 +15°C° 0 mm 5 m/s 764 mmHg 79%
04:00 +15°C° 0 mm 5 m/s 764 mmHg 81%
05:00 +17°C° 0 mm 5 m/s 764 mmHg 76%
06:00 +20°C° 0 mm 5 m/s 764 mmHg 71%
07:00 +22°C° 0 mm 5 m/s 764 mmHg 66%
08:00 +23°C° 0 mm 5 m/s 764 mmHg 62%
09:00 +26°C° 0 mm 5 m/s 764 mmHg 57%
10:00 +27°C° 0 mm 5 m/s 764 mmHg 52%
11:00 +28°C° 0 mm 5 m/s 764 mmHg 51%
12:00 +28°C° 0 mm 5 m/s 763 mmHg 50%
13:00 +29°C° 0 mm 5 m/s 763 mmHg 48%
14:00 +29°C° 0 mm 5 m/s 763 mmHg 49%
15:00 +29°C° 0 mm 5 m/s 763 mmHg 51%
16:00 +30°C° 0 mm 4 m/s 762 mmHg 52%
17:00 +29°C° 0 mm 4 m/s 762 mmHg 58%
18:00 +28°C° 0 mm 5 m/s 762 mmHg 64%
19:00 +27°C° 0 mm 5 m/s 762 mmHg 70%
20:00 +25°C° 0 mm 5 m/s 762 mmHg 75%
21:00 +23°C° 0 mm 5 m/s 762 mmHg 80%
22:00 +22°C° 0 mm 5 m/s 762 mmHg 85%
23:00 +21°C° 0 mm 5 m/s 762 mmHg 85%

19 Juin, Samedi

Heure Température Précipitation Vent Pression Humidité
00:00 +21°C° 0 mm 5 m/s 762 mmHg 84%
01:00 +21°C° 0 mm 6 m/s 762 mmHg 84%
02:00 +20°C° 0 mm 5 m/s 762 mmHg 85%
03:00 +20°C° 0 mm 5 m/s 762 mmHg 87%
04:00 +19°C° 0 mm 5 m/s 762 mmHg 88%
05:00 +21°C° 0 mm 5 m/s 762 mmHg 82%
06:00 +23°C° 0 mm 5 m/s 762 mmHg 77%
07:00 +24°C° 0 mm 6 m/s 762 mmHg 71%
08:00 +26°C° 0 mm 6 m/s 762 mmHg 66%
09:00 +28°C° 0 mm 6 m/s 762 mmHg 61%
10:00 +29°C° 0 mm 6 m/s 762 mmHg 56%
11:00 +30°C° 0 mm 6 m/s 761 mmHg 53%
12:00 +30°C° 0 mm 6 m/s 761 mmHg 50%
13:00 +32°C° 0 mm 5 m/s 761 mmHg 48%
14:00 +32°C° 0 mm 6 m/s 761 mmHg 49%
15:00 +32°C° 0 mm 6 m/s 760 mmHg 50%
16:00 +32°C° 0 mm 6 m/s 760 mmHg 51%
17:00 +30°C° 0 mm 6 m/s 760 mmHg 57%
18:00 +29°C° 0 mm 6 m/s 760 mmHg 62%
19:00 +28°C° 0 mm 6 m/s 760 mmHg 68%
20:00 +27°C° 0 mm 6 m/s 760 mmHg 71%
21:00 +26°C° 0 mm 6 m/s 760 mmHg 73%
22:00 +25°C° 0 mm 5 m/s 760 mmHg 75%
23:00 +25°C° 0 mm 5 m/s 760 mmHg 75%

20 Juin, Dimanche

Heure Température Précipitation Vent Pression Humidité
00:00 +25°C° 0 mm 5 m/s 760 mmHg 74%
01:00 +25°C° 0 mm 4 m/s 760 mmHg 73%
02:00 +23°C° 0.1 mm 4 m/s 760 mmHg 79%
03:00 +22°C° 0.1 mm 4 m/s 760 mmHg 84%
04:00 +21°C° 0.1 mm 4 m/s 760 mmHg 89%
05:00 +22°C° 0.1 mm 4 m/s 760 mmHg 85%
06:00 +25°C° 0.1 mm 4 m/s 760 mmHg 81%
07:00 +26°C° 0.1 mm 4 m/s 760 mmHg 77%
08:00 +27°C° 0.4 mm 4 m/s 760 mmHg 73%
09:00 +27°C° 0.4 mm 3 m/s 760 mmHg 70%
10:00 +28°C° 0.4 mm 3 m/s 760 mmHg 66%
11:00 +28°C° 0.9 mm 3 m/s 760 mmHg 66%
12:00 +29°C° 0.9 mm 3 m/s 760 mmHg 66%
13:00 +29°C° 0.9 mm 3 m/s 760 mmHg 66%
14:00 +29°C° 0.1 mm 3 m/s 760 mmHg 65%
15:00 +29°C° 0.1 mm 4 m/s 759 mmHg 64%
16:00 +29°C° 0.1 mm 4 m/s 759 mmHg 63%
17:00 +28°C° 0.1 mm 4 m/s 759 mmHg 66%
18:00 +28°C° 0.1 mm 4 m/s 759 mmHg 69%
19:00 +27°C° 0.1 mm 4 m/s 759 mmHg 72%
20:00 +26°C° 0 mm 4 m/s 759 mmHg 75%
21:00 +25°C° 0 mm 4 m/s 759 mmHg 78%
22:00 +23°C° 0 mm 4 m/s 759 mmHg 80%
23:00 +22°C° 0 mm 4 m/s 759 mmHg 81%

21 Juin, Lundi

Heure Température Précipitation Vent Pression Humidité
00:00 +21°C° 0 mm 4 m/s 759 mmHg 82%
01:00 +21°C° 0 mm 4 m/s 759 mmHg 82%
02:00 +20°C° 0 mm 4 m/s 759 mmHg 84%
03:00 +20°C° 0 mm 4 m/s 759 mmHg 86%
04:00 +20°C° 0 mm 4 m/s 759 mmHg 87%
05:00 +21°C° 0 mm 4 m/s 759 mmHg 82%
06:00 +23°C° 0 mm 4 m/s 759 mmHg 77%
07:00 +25°C° 0 mm 5 m/s 759 mmHg 71%
08:00 +26°C° 0 mm 5 m/s 759 mmHg 68%
09:00 +27°C° 0 mm 5 m/s 759 mmHg 64%
10:00 +29°C° 0 mm 5 m/s 758 mmHg 60%
11:00 +29°C° 0 mm 5 m/s 758 mmHg 57%
12:00 +30°C° 0 mm 5 m/s 758 mmHg 54%
13:00 +32°C° 0 mm 5 m/s 758 mmHg 51%
14:00 +32°C° 0 mm 5 m/s 758 mmHg 51%
15:00 +32°C° 0 mm 5 m/s 757 mmHg 51%
16:00 +32°C° 0 mm 5 m/s 757 mmHg 51%
17:00 +30°C° 0 mm 5 m/s 757 mmHg 57%
18:00 +29°C° 0 mm 5 m/s 757 mmHg 62%
19:00 +28°C° 0 mm 5 m/s 757 mmHg 68%
20:00 +26°C° 0 mm 5 m/s 757 mmHg 73%
21:00 +25°C° 0 mm 5 m/s 757 mmHg 78%
22:00 +23°C° 0 mm 5 m/s 757 mmHg 82%
23:00 +22°C° 0 mm 4 m/s 757 mmHg 83%
Voir plus

Nous avons besoin de votre consentement

Meteoprog et ses fournisseurs de services peuvent stocker et accéder à des données personnelles telles que des cookies, des identifiants d'appareils ou d'autres technologies similaires sur votre appareil et traiter ces données pour personnaliser le contenu et les publicités, ainsi que pour fournir des fonctionnalités de médias sociaux et analyser le trafic.

  • Stocker et/ou accéder à des informations sur votre appareil

    Des cookies, des identifiants d'appareils ou d'autres informations peuvent être stockés ou accessibles sur votre appareil aux fins indiquées ci-dessus.

  • Annonces et contenus personnalisés, mesure des annonces et des contenus, connaissance de l'audience et développement de produits

    Les annonces et le contenu peuvent être personnalisés en fonction d'un profil. D'autres données peuvent être ajoutées pour mieux personnaliser les annonces et le contenu. Les performances des publicités et du contenu peuvent être mesurées. Il est possible d'obtenir des informations sur le public qui a vu les publicités et le contenu. Ces données peuvent être utilisées pour développer ou améliorer l'expérience de l'utilisateur, les systèmes et les logiciels.

En cliquant sur "J'accepte", vous autorisez l'utilisation de cookies, des identifiants d'appareils, des balises web ou d'autres technologies similaires. Vos paramètres peuvent être modifiés dans le navigateur de votre appareil.

Dans certains cas, des intérêts légitimes peuvent être invoqués plutôt qu'un consentement. Vous pouvez en savoir plus à ce sujet dans notre Politique de confidentialité et de cookies.